• In United Kingdom
  • List of Countries
  • For 7 days
  • Water Temperature
  • Satellite Maps
  • Weather Map
  • Weather Widgets
  • user-avatar
    Login

    Hourly Weather Giumri

    Today, 23 May, Wednesday

    Time Temperature Precipitation Wind Pressure Humidity
    00:00 +13°C° 0.3 mm 1 mps 637 mmHg 94%
    01:00 +13°C° 0.2 mm 1 mps 637 mmHg 94%
    02:00 +12°C° 0.2 mm 1 mps 637 mmHg 95%
    03:00 +12°C° 0.2 mm 1 mps 637 mmHg 95%
    04:00 +12°C° 0.1 mm 2 mps 637 mmHg 94%
    05:00 +12°C° 0.1 mm 2 mps 637 mmHg 93%
    06:00 +12°C° 0.1 mm 2 mps 637 mmHg 91%
    07:00 +14°C° 0.1 mm 2 mps 637 mmHg 86%
    08:00 +15°C° 0.1 mm 2 mps 638 mmHg 81%
    09:00 +16°C° 0.1 mm 2 mps 638 mmHg 75%
    10:00 +17°C° 0.2 mm 3 mps 638 mmHg 72%
    11:00 +18°C° 0.2 mm 3 mps 638 mmHg 69%
    12:00 +19°C° 0.2 mm 3 mps 638 mmHg 66%
    13:00 +19°C° 0.5 mm 4 mps 638 mmHg 66%
    14:00 +20°C° 0.5 mm 4 mps 638 mmHg 65%
    15:00 +20°C° 0.5 mm 4 mps 638 mmHg 65%
    16:00 +19°C° 0.6 mm 4 mps 637 mmHg 68%
    17:00 +18°C° 0.6 mm 3 mps 637 mmHg 72%
    18:00 +18°C° 0.6 mm 3 mps 637 mmHg 75%
    19:00 +16°C° 0.5 mm 3 mps 637 mmHg 80%
    20:00 +14°C° 0.5 mm 2 mps 636 mmHg 84%
    21:00 +13°C° 0.5 mm 2 mps 636 mmHg 89%
    22:00 +12°C° 0.1 mm 2 mps 636 mmHg 88%
    23:00 +12°C° 0.1 mm 2 mps 636 mmHg 87%

    Tomorrow, 24 May, Thursday

    Time Temperature Precipitation Wind Pressure Humidity
    00:00 +10°C° 0.1 mm 2 mps 636 mmHg 86%
    01:00 +10°C° 0.1 mm 2 mps 636 mmHg 84%
    02:00 +10°C° 0.1 mm 2 mps 635 mmHg 82%
    03:00 +9°C° 0.1 mm 2 mps 635 mmHg 81%
    04:00 +10°C° 0 mm 2 mps 635 mmHg 79%
    05:00 +10°C° 0 mm 2 mps 635 mmHg 77%
    06:00 +12°C° 0 mm 2 mps 635 mmHg 75%
    07:00 +14°C° 0 mm 2 mps 636 mmHg 69%
    08:00 +15°C° 0 mm 2 mps 636 mmHg 63%
    09:00 +17°C° 0 mm 2 mps 636 mmHg 57%
    10:00 +18°C° 0 mm 2 mps 636 mmHg 55%
    11:00 +19°C° 0 mm 3 mps 636 mmHg 53%
    12:00 +20°C° 0 mm 3 mps 636 mmHg 51%
    13:00 +21°C° 0.1 mm 3 mps 636 mmHg 52%
    14:00 +21°C° 0.1 mm 3 mps 636 mmHg 52%
    15:00 +21°C° 0.1 mm 3 mps 635 mmHg 53%
    16:00 +20°C° 0.2 mm 3 mps 635 mmHg 57%
    17:00 +19°C° 0.2 mm 3 mps 635 mmHg 61%
    18:00 +18°C° 0.2 mm 3 mps 634 mmHg 65%
    19:00 +16°C° 0 mm 2 mps 634 mmHg 70%
    20:00 +14°C° 0 mm 2 mps 633 mmHg 74%
    21:00 +13°C° 0 mm 2 mps 633 mmHg 79%
    22:00 +12°C° 0 mm 2 mps 633 mmHg 79%
    23:00 +12°C° 0 mm 1 mps 633 mmHg 79%

    Day after tomorrow, 25 May, Friday

    Time Temperature Precipitation Wind Pressure Humidity
    00:00 +11°C° 0 mm 1 mps 633 mmHg 79%
    01:00 +11°C° 0 mm 1 mps 632 mmHg 79%
    02:00 +11°C° 0 mm 1 mps 632 mmHg 79%
    03:00 +10°C° 0 mm 1 mps 632 mmHg 79%
    04:00 +11°C° 0 mm 1 mps 632 mmHg 77%
    05:00 +12°C° 0 mm 1 mps 632 mmHg 76%
    06:00 +13°C° 0 mm 1 mps 632 mmHg 75%
    07:00 +14°C° 0 mm 1 mps 633 mmHg 70%
    08:00 +16°C° 0 mm 2 mps 633 mmHg 64%
    09:00 +18°C° 0 mm 2 mps 634 mmHg 59%
    10:00 +19°C° 0.3 mm 2 mps 633 mmHg 58%
    11:00 +20°C° 0.3 mm 2 mps 633 mmHg 57%
    12:00 +21°C° 0.3 mm 3 mps 633 mmHg 56%
    13:00 +21°C° 1.1 mm 2 mps 633 mmHg 56%
    14:00 +21°C° 1.1 mm 2 mps 633 mmHg 57%
    15:00 +21°C° 1.1 mm 2 mps 633 mmHg 57%
    16:00 +20°C° 1.2 mm 2 mps 633 mmHg 62%
    17:00 +21°C° 1.2 mm 1 mps 632 mmHg 66%
    18:00 +20°C° 1.2 mm 1 mps 632 mmHg 71%
    19:00 +19°C° 1 mm 1 mps 632 mmHg 74%
    20:00 +16°C° 1 mm 1 mps 632 mmHg 77%
    21:00 +15°C° 1 mm 1 mps 632 mmHg 80%
    22:00 +14°C° 0.5 mm 1 mps 632 mmHg 82%
    23:00 +14°C° 0.5 mm 1 mps 632 mmHg 83%

    26 May, Saturday

    Time Temperature Precipitation Wind Pressure Humidity
    00:00 +13°C° 0.5 mm 0 mps 632 mmHg 84%
    01:00 +12°C° 0.2 mm 0 mps 632 mmHg 85%
    02:00 +12°C° 0.2 mm 0 mps 632 mmHg 85%
    03:00 +12°C° 0.2 mm 0 mps 631 mmHg 86%
    04:00 +12°C° 0.1 mm 0 mps 632 mmHg 85%
    05:00 +14°C° 0.1 mm 1 mps 632 mmHg 84%
    06:00 +14°C° 0.1 mm 1 mps 632 mmHg 83%
    07:00 +16°C° 0.2 mm 1 mps 633 mmHg 77%
    08:00 +18°C° 0.2 mm 1 mps 633 mmHg 71%
    09:00 +19°C° 0.2 mm 2 mps 633 mmHg 65%
    10:00 +20°C° 0.7 mm 2 mps 633 mmHg 62%
    11:00 +21°C° 0.7 mm 2 mps 633 mmHg 59%
    12:00 +23°C° 0.7 mm 2 mps 634 mmHg 56%
    13:00 +23°C° 2 mm 2 mps 633 mmHg 58%
    14:00 +21°C° 2 mm 2 mps 633 mmHg 60%
    15:00 +21°C° 2 mm 2 mps 633 mmHg 62%
    16:00 +20°C° 2.2 mm 2 mps 633 mmHg 67%
    17:00 +19°C° 2.2 mm 2 mps 633 mmHg 73%
    18:00 +18°C° 2.2 mm 2 mps 633 mmHg 78%
    19:00 +17°C° 1.1 mm 2 mps 633 mmHg 80%
    20:00 +16°C° 1.1 mm 2 mps 633 mmHg 82%
    21:00 +15°C° 1.1 mm 2 mps 634 mmHg 85%
    22:00 +14°C° 0.8 mm 1 mps 634 mmHg 86%
    23:00 +14°C° 0.8 mm 1 mps 634 mmHg 87%

    27 May, Sunday

    Time Temperature Precipitation Wind Pressure Humidity
    00:00 +14°C° 0.8 mm 1 mps 634 mmHg 88%
    01:00 +13°C° 0.7 mm 1 mps 634 mmHg 88%
    02:00 +13°C° 0.7 mm 1 mps 634 mmHg 89%
    03:00 +13°C° 0.7 mm 1 mps 634 mmHg 90%
    04:00 +13°C° 0.2 mm 1 mps 634 mmHg 90%
    05:00 +13°C° 0.2 mm 1 mps 635 mmHg 90%
    06:00 +14°C° 0.2 mm 1 mps 635 mmHg 89%
    07:00 +15°C° 0 mm 2 mps 636 mmHg 83%
    08:00 +17°C° 0 mm 2 mps 637 mmHg 77%
    09:00 +18°C° 0 mm 2 mps 637 mmHg 71%
    10:00 +19°C° 0 mm 2 mps 638 mmHg 68%
    11:00 +20°C° 0 mm 3 mps 638 mmHg 64%
    12:00 +20°C° 0 mm 3 mps 638 mmHg 61%
    13:00 +20°C° 0.1 mm 3 mps 638 mmHg 61%
    14:00 +20°C° 0.1 mm 3 mps 638 mmHg 61%
    15:00 +20°C° 0.1 mm 3 mps 638 mmHg 61%
    16:00 +19°C° 0.2 mm 3 mps 638 mmHg 66%
    17:00 +18°C° 0.2 mm 3 mps 638 mmHg 72%
    18:00 +17°C° 0.2 mm 3 mps 638 mmHg 78%
    19:00 +16°C° 0.1 mm 3 mps 638 mmHg 82%
    20:00 +13°C° 0.1 mm 3 mps 638 mmHg 87%
    21:00 +13°C° 0.1 mm 2 mps 638 mmHg 91%
    22:00 +12°C° 0 mm 2 mps 638 mmHg 92%
    23:00 +12°C° 0 mm 2 mps 638 mmHg 92%

    28 May, Monday

    Time Temperature Precipitation Wind Pressure Humidity
    00:00 +10°C° 0 mm 2 mps 638 mmHg 92%
    01:00 +10°C° 0 mm 2 mps 637 mmHg 92%
    02:00 +11°C° 0 mm 1 mps 637 mmHg 92%
    03:00 +11°C° 0 mm 1 mps 637 mmHg 91%
    04:00 +12°C° 0 mm 1 mps 637 mmHg 88%
    05:00 +12°C° 0 mm 1 mps 637 mmHg 84%
    06:00 +13°C° 0 mm 1 mps 638 mmHg 81%
    07:00 +15°C° 0 mm 1 mps 638 mmHg 74%
    08:00 +18°C° 0 mm 2 mps 639 mmHg 66%
    09:00 +20°C° 0 mm 2 mps 639 mmHg 59%
    10:00 +21°C° 0 mm 2 mps 639 mmHg 56%
    11:00 +23°C° 0 mm 2 mps 639 mmHg 52%
    12:00 +25°C° 0 mm 2 mps 639 mmHg 49%
    13:00 +25°C° 0.1 mm 2 mps 639 mmHg 49%
    14:00 +25°C° 0.1 mm 2 mps 639 mmHg 49%
    15:00 +25°C° 0.1 mm 2 mps 638 mmHg 49%
    16:00 +24°C° 0.8 mm 2 mps 638 mmHg 55%
    17:00 +23°C° 0.8 mm 2 mps 638 mmHg 61%
    18:00 +21°C° 0.8 mm 2 mps 637 mmHg 67%
    19:00 +20°C° 1.5 mm 2 mps 637 mmHg 73%
    20:00 +18°C° 1.5 mm 2 mps 637 mmHg 79%
    21:00 +16°C° 1.5 mm 2 mps 637 mmHg 86%
    22:00 +16°C° 1.1 mm 2 mps 637 mmHg 88%
    23:00 +15°C° 1.1 mm 2 mps 637 mmHg 90%
    Show more